Regional Weather Roundup
Issued by NWS

Home | Current Version | Previous Version | Graphics & Text | Print | Product List | Glossary On
Versions: 1 2 3 4 5 6 7 8 9 10 11 12 13 14 15 16 17 18 19 20 21 22 23 24 25 26 27 28 29 30 31 32 33 34 35 36 37 38 39 40 41 42 43 44 45 46 47 48 49 50
000
ASUS45 KTFX 200819
RWRMT
MONTANA HOURLY WEATHER ROUNDUP
NATIONAL WEATHER SERVICE GREAT FALLS MT
219 AM MDT SAT SEP 20 2014

NOTE: "FAIR" INDICATES FEW OR NO CLOUDS BELOW 12000 FEET WITH NO
SIGNIFICANT WEATHER AND/OR OBSTRUCTIONS TO VISIBILITY.

* THESE STATIONS ARE NOT UNDER NWS QUALITY CONTROL. THEY DO NOT
   REPORT WEATHER SUCH AS PRECIPITATION OR FOG.

MTZ001>007-043-200900-
WEST OF THE DIVIDE
CITY           SKY/WX    TMP DP  RH WIND       PRES   REMARKS
KALISPELL      PTCLDY    46  43  89 CALM      30.14S
MISSOULA       MOCLDY    52  45  77 CALM      30.19R
BUTTE          PTCLDY    45  39  80 E6        30.24R
MULLAN PASS    PTCLDY    50  43  77 SW5       30.26R
* ESSEX        N/A       49  46  89 N/A        N/A
* LINCOLN      N/A       51  42  71 W2G7       N/A
* LOOKOUT PASS N/A       49  44  83 SE1        N/A
* POLSON       N/A       53  44  72 SE1        N/A
* RONAN APT    MOCLDY    45  41  86 N/A        N/A
* SEELEY LAKE  N/A       40  37  89 NE1        N/A
* THOMP F APT  MOCLDY    48  45  89 N/A        N/A
$$

MTZ008-052>055-200900-
SOUTHWEST MONTANA
CITY           SKY/WX    TMP DP  RH WIND       PRES   REMARKS
BOZEMAN        PTCLDY    43  39  86 SE6       30.19R
DILLON         PTCLDY    50  39  66 CALM      30.21R
W YELLOWSTONE  PTCLDY    37  37 100 CALM      30.28R
* THREE FORKS  PTCLDY    45  25  45 N/A        N/A
* BOULDER HILL N/A       51  36  57 NW2G8      N/A
* MONIDA PASS  N/A       47  39  74 W4         N/A
* RAYNOLDS PAS N/A       45  25  45 E3         N/A
* WHITEHALL    N/A       53  41  64 NE2G10     N/A
* WISE RIVER   N/A       46  40  80 S4G9       N/A
$$

MTZ009>010-012-014-046-048-049-054-200900-
EAST SLOPES AND CENTRAL MONTANA
CITY           SKY/WX    TMP DP  RH WIND       PRES   REMARKS
CUT BANK       PTCLDY    54  41  62 W10       30.07R
GREAT FALLS    PTCLDY    54  43  67 SW12      30.08R
HELENA         CLEAR     57  43  60 W6        30.15R
MALMSTROM AFB  PTCLDY    55  43  64 SW10      30.09R
* CONRAD       PTCLDY    52  45  77 SW5        N/A
* EAST GLACIER N/A       58  39  49 W15G22     N/A
* MONARCH      N/A       52  36  55 SW6        N/A
* PENDROY      N/A       54  41  62 NW9        N/A
* ROGERS PASS  N/A       52  40  64 SE13G20    N/A
* SAINT MARY   N/A       58  41  53 S7G20      N/A
* SWEET GRASS  N/A       58  38  47 NW19G24    N/A
* WHITE SULPH  N/A       50  39  66 NW3        N/A
$$

MTZ011-013-016-021-035-040-045-047-050-051-200900-
NORTH CENTRAL MONTANA
CITY           SKY/WX    TMP DP  RH WIND       PRES   REMARKS
HAVRE          CLEAR     55  43  64 SW15      29.97R
LEWISTOWN      CLEAR     52  41  66 W10       30.09R
* CHINOOK      CLEAR     61  43  52 W10G18    29.95R
* FORT BENTON  PTCLDY    55  43  64 SW9       30.05R
* CHESTER      N/A       51  40  66 N1         N/A
* DENTON       N/A       54  43  67 SW9G14     N/A
* GEYSER       N/A       51  42  71 NW2        N/A
* JUDITH GAP   N/A       54  42  64 NW14G19    N/A
* LOMA         N/A       54  42  64 S2         N/A
$$

MTZ017>020-022>027-061-062-200900-
NORTHEAST MONTANA
CITY           SKY/WX    TMP DP  RH WIND       PRES   REMARKS
GLASGOW        CLEAR     55  48  77 SW8       29.88S
JORDAN         CLEAR     54  46  74 W9        29.96R
SIDNEY         CLEAR     50  46  86 S5        29.89R
WOLF POINT     PTCLDY    54  50  86 CALM      29.87F
* BEAVER HILL  N/A       58  47  67 SW8        N/A
* CIRCLE       N/A       53  47  80 N/A        N/A
* LINDSAY DVD  N/A       59  47  65 SW7G12     N/A
$$

MTZ028>042-056>058-200900-
SOUTHCENTRAL AND SOUTHEAST MONTANA
CITY           SKY/WX    TMP DP  RH WIND       PRES   REMARKS
BAKER          MOCLDY    54  46  74 W7        29.97R
BILLINGS       CLEAR     59  43  56 SW8       30.08R
LIVINGSTON     CLEAR     48  39  71 W5        30.17R
MILES CITY     CLEAR     57  45  64 W5        29.97R
* LAUREL APT   CLEAR     54  43  67 N/A        N/A
* ROUNDUP APT  PTCLDY    52  43  72 SW6        N/A
* ALZADA       N/A       55  47  75 NW4        N/A
* HYSHAM       N/A       59  43  56 W4         N/A
* LAME DEER    N/A       60  45  58 W8         N/A
* REED POINT   N/A       55  42  62 SE4        N/A
* ROSCOE HILL  N/A       55  36  49 SW4        N/A
$$

REGIONAL REPORTS...DAKOTAS
CITY           SKY/WX    TMP DP  RH WIND       PRES   REMARKS
WILLISTON      CLEAR     50  48  93 SW3       29.86S
DICKINSON      CLEAR     52  45  77 W8        29.88R
BEACH          N/A       54  48  80 CALM      29.93R
CROSBY         CLEAR     50  50 100 S9        29.83R
TIOGA          CLEAR     46  46 100 W3        29.88F
WATFORD CITY   CLEAR     48  46  93 CALM      29.85S
BISMARCK       MOCLDY    55  52  90 SW5       29.86R
GRAND FORKS    CLEAR     52  48  86 N5        29.73S
FARGO          CLEAR     57  54  90 NW9       29.74R
BUFFALO SD     CLEAR     54  46  74 W10       29.91R
RAPID CITY     MOCLDY    64  46  52 NW13      30.01R
$$

REGIONAL REPORTS...WYOMING/IDAHO/WASHINGTON
CITY           SKY/WX    TMP DP  RH WIND       PRES   REMARKS
GILLETTE       PTCLDY    57  46  67 CALM      30.09R
SHERIDAN       MOCLDY    54  46  74 CALM      30.08R
CODY           CLEAR    N/A N/A N/A N/A        N/A
YELLOWSTONE LA CLEAR     39  37  93 CALM      30.35R
SALMON         PTCLDY    50  39  66 CALM      30.17R
MULLAN PASS    PTCLDY    50  43  77 SW5       30.26S
SAND POINT     MOCLDY    48  48 100 CALM      30.11R
SPOKANE        PTCLDY    59  45  60 S8        30.11R
$$

REGIONAL REPORTS...ALBERTA
CITY           SKY/WX    TMP DP  RH WIND       PRES   REMARKS
CALGARY        FAIR      50  37  61 NW5       30.05R
LETHBRIDGE     CLEAR     61  43  52 W21G30    30.02R
MEDICINE HAT   CLEAR     57  45  64 NW17G24   29.96R
EDMONTON       FAIR      50  36  59 NW9       29.96R
WATERTON GATE  N/A       59  41  51 SW12G18    N/A
CARDSTON       N/A       57  43  60 W6         N/A
MILK RIVER     N/A       54  41  62 W10        N/A
$$

REGIONAL REPORTS...SASKATCHEWAN
CITY           SKY/WX    TMP DP  RH WIND       PRES   REMARKS
SWIFT CURRENT  LGT RAIN  52  48  86 N14G23    29.92R
REGINA         PTCLDY    54  50  86 NW13G20   29.81R
VAL MARIE      N/A       54  46  74 W13        N/A
ASSINIBOIA     N/A       55  48  77 NW14G20    N/A
CORONACH       N/A       48  46  93 NW2        N/A

$$




USA.gov is the U.S. government's official web portal to all federal, state and local government web resources and services.